This is the latest recevied weather packets stored in our database for station/object KC0RKM-13. If no packets are shown the sender has not sent any weather packets the latest 10 day(s).
| Time | Temp. | Humidity | Pressure | Rain* | Wind** | Luminosity | Snow |
|---|---|---|---|---|---|---|---|
| 1788559804 | 36.67° C | 39% | 1010.7 hPa | 0 mm | - | - | - |
| 1788559204 | 36.67° C | 38% | 1010.6 hPa | 0 mm | - | - | - |
| 1788558603 | 36.67° C | 37% | 1010.8 hPa | 0 mm | - | - | - |
| 1788558004 | 36.67° C | 37% | 1010.8 hPa | 0 mm | - | - | - |
| 1788557404 | 36.67° C | 37% | 1010.9 hPa | 0 mm | - | - | - |
| 1788556804 | 36.67° C | 38% | 1010.9 hPa | 0 mm | - | - | - |
| 1788556203 | 36.11° C | 38% | 1011.2 hPa | 0 mm | - | - | - |
| 1788555603 | 36.11° C | 40% | 1011.2 hPa | 0 mm | - | - | - |
| 1788555011 | 36.11° C | 39% | 1011 hPa | 0 mm | - | - | - |
| 1788554404 | 36.67° C | 40% | 1011.1 hPa | 0 mm | - | - | - |
| 1788553804 | 36.67° C | 39% | 1011.3 hPa | 0 mm | - | - | - |
| 1788553204 | 36.67° C | 39% | 1011.5 hPa | 0 mm | - | - | - |
| 1788552604 | 36.11° C | 40% | 1011.3 hPa | 0 mm | - | - | - |
| 1788552004 | 36.11° C | 40% | 1011.5 hPa | 0 mm | - | - | - |
| 1788551403 | 36.11° C | 40% | 1011.7 hPa | 0 mm | - | - | - |
| 1788550804 | 35.56° C | 42% | 1011.7 hPa | 0 mm | - | - | - |
| 1788550204 | 36.11° C | 41% | 1011.9 hPa | 0 mm | - | - | - |
| 1788549604 | 35.56° C | 44% | 1011.8 hPa | 0 mm | - | - | - |
| 1788549004 | 35° C | 42% | 1012.2 hPa | 0 mm | - | - | - |
| 1788548404 | 35° C | 41% | 1012.1 hPa | 0 mm | - | - | - |
| 1788547803 | 35° C | 44% | 1012.2 hPa | 0 mm | - | - | - |
| 1788547204 | 35° C | 42% | 1012.4 hPa | 0 mm | - | - | - |
| 1788546604 | 34.44° C | 42% | 1012.4 hPa | 0 mm | - | - | - |
| 1788546003 | 34.44° C | 43% | 1012.3 hPa | 0 mm | - | - | - |
| 1788545404 | 34.44° C | 43% | 1012.3 hPa | 0 mm | - | - | - |
* Rain latest hour (hover to see other rain measurements)
** Current wind speed in m/s (hover to see current wind gust speed)